iso_date,Year,Hour,Min,DOY,POS_DOY,Lat,Lon,BP,Ts,Ta,has_bp,has_ts,has_ta,BuoyID,Buoy_Type,Buoy_Owner,Logistics,Hemisphere
2021-09-20T16:01:03Z,2021,16,1,263.6674,263.6674,63.486,-21.539,-999.0,11.39,-999.0,no,yes,no,300234068540110,SVPGHI,AOML,UNKNOWN,North
2021-09-20T16:59:57Z,2021,17,0,263.7083,263.7083,63.476,-21.551,-999.0,11.38,-999.0,no,yes,no,300234068540110,SVPGHI,AOML,UNKNOWN,North
2021-09-20T18:04:01Z,2021,18,4,263.7528,263.7528,63.469,-21.569,-999.0,11.37,-999.0,no,yes,no,300234068540110,SVPGHI,AOML,UNKNOWN,North
2021-09-20T19:00:02Z,2021,19,0,263.7917,263.7917,63.467,-21.584,-999.0,11.36,-999.0,no,yes,no,300234068540110,SVPGHI,AOML,UNKNOWN,North
2021-09-20T20:01:58Z,2021,20,2,263.8347,263.8347,63.465,-21.589,-999.0,11.35,-999.0,no,yes,no,300234068540110,SVPGHI,AOML,UNKNOWN,North
2021-09-20T21:01:00Z,2021,21,1,263.8757,263.8757,63.463,-21.6,-999.0,11.34,-999.0,no,yes,no,300234068540110,SVPGHI,AOML,UNKNOWN,North
2021-09-20T22:00:02Z,2021,22,0,263.9167,263.9167,63.462,-21.603,-999.0,11.34,-999.0,no,yes,no,300234068540110,SVPGHI,AOML,UNKNOWN,North
2021-09-20T23:03:59Z,2021,23,4,263.9611,263.9611,-90.0,-180.0,-999.0,11.33,-999.0,no,yes,no,300234068540110,SVPGHI,AOML,UNKNOWN,North
2021-09-21T00:00:00Z,2021,0,0,264.0,264.0,63.478,-21.609,-999.0,11.32,-999.0,no,yes,no,300234068540110,SVPGHI,AOML,UNKNOWN,North
2021-09-21T01:02:03Z,2021,1,2,264.0431,264.0431,63.476,-21.592,-999.0,11.31,-999.0,no,yes,no,300234068540110,SVPGHI,AOML,UNKNOWN,North
2021-09-21T01:59:57Z,2021,2,0,264.0833,264.0833,63.479,-21.584,-999.0,11.31,-999.0,no,yes,no,300234068540110,SVPGHI,AOML,UNKNOWN,North
2021-09-21T03:02:00Z,2021,3,2,264.1264,264.1264,63.481,-21.575,-999.0,11.31,-999.0,no,yes,no,300234068540110,SVPGHI,AOML,UNKNOWN,North
2021-09-21T04:00:02Z,2021,4,0,264.1667,264.1667,63.481,-21.577,-999.0,11.29,-999.0,no,yes,no,300234068540110,SVPGHI,AOML,UNKNOWN,North
2021-09-21T04:59:57Z,2021,5,0,264.2083,264.2083,63.481,-21.582,-999.0,11.29,-999.0,no,yes,no,300234068540110,SVPGHI,AOML,UNKNOWN,North
2021-09-21T06:00:00Z,2021,6,0,264.25,264.25,63.478,-21.597,-999.0,11.27,-999.0,no,yes,no,300234068540110,SVPGHI,AOML,UNKNOWN,North
2021-09-21T07:03:56Z,2021,7,4,264.2944,264.2944,63.479,-21.618,-999.0,11.25,-999.0,no,yes,no,300234068540110,SVPGHI,AOML,UNKNOWN,North
2021-09-21T08:03:59Z,2021,8,4,264.3361,264.3361,63.484,-21.649,-999.0,11.24,-999.0,no,yes,no,300234068540110,SVPGHI,AOML,UNKNOWN,North
2021-09-21T09:02:00Z,2021,9,2,264.3764,264.3764,63.488,-21.664,-999.0,11.24,-999.0,no,yes,no,300234068540110,SVPGHI,AOML,UNKNOWN,North
2021-09-21T10:00:02Z,2021,10,0,264.4167,264.4167,63.498,-21.678,-999.0,11.24,-999.0,no,yes,no,300234068540110,SVPGHI,AOML,UNKNOWN,North
2021-09-21T10:59:57Z,2021,11,0,264.4583,264.4583,63.512,-21.677,-999.0,11.24,-999.0,no,yes,no,300234068540110,SVPGHI,AOML,UNKNOWN,North
2021-09-21T12:02:00Z,2021,12,2,264.5014,264.5014,63.526,-21.659,-999.0,11.24,-999.0,no,yes,no,300234068540110,SVPGHI,AOML,UNKNOWN,North
2021-09-21T13:00:02Z,2021,13,0,264.5417,264.5417,63.54,-21.633,-999.0,11.23,-999.0,no,yes,no,300234068540110,SVPGHI,AOML,UNKNOWN,North
2021-09-21T13:59:57Z,2021,14,0,264.5833,264.5833,63.544,-21.601,-999.0,11.05,-999.0,no,yes,no,300234068540110,SVPGHI,AOML,UNKNOWN,North
2021-09-21T15:01:00Z,2021,15,1,264.6257,264.6257,63.544,-21.557,-999.0,10.65,-999.0,no,yes,no,300234068540110,SVPGHI,AOML,UNKNOWN,North
2021-09-21T17:03:59Z,2021,17,4,264.7111,264.7111,-90.0,-180.0,-999.0,10.26,-999.0,no,yes,no,300234068540110,SVPGHI,AOML,UNKNOWN,North
2021-09-21T18:01:00Z,2021,18,1,264.7507,264.7507,63.522,-21.498,-999.0,10.19,-999.0,no,yes,no,300234068540110,SVPGHI,AOML,UNKNOWN,North
2021-09-21T19:02:03Z,2021,19,2,264.7931,264.7931,63.507,-21.485,-999.0,10.15,-999.0,no,yes,no,300234068540110,SVPGHI,AOML,UNKNOWN,North
2021-09-21T20:01:58Z,2021,20,2,264.8347,264.8347,63.494,-21.469,-999.0,10.14,-999.0,no,yes,no,300234068540110,SVPGHI,AOML,UNKNOWN,North
2021-09-21T21:04:01Z,2021,21,4,264.8778,264.8778,63.483,-21.466,-999.0,10.1,-999.0,no,yes,no,300234068540110,SVPGHI,AOML,UNKNOWN,North
2021-09-21T22:02:03Z,2021,22,2,264.9181,264.9181,63.473,-21.471,-999.0,10.11,-999.0,no,yes,no,300234068540110,SVPGHI,AOML,UNKNOWN,North
2021-09-21T22:59:57Z,2021,23,0,264.9583,264.9583,63.468,-21.473,-999.0,10.11,-999.0,no,yes,no,300234068540110,SVPGHI,AOML,UNKNOWN,North
2021-09-22T00:00:00Z,2021,0,0,265.0,265.0,63.467,-21.476,-999.0,10.09,-999.0,no,yes,no,300234068540110,SVPGHI,AOML,UNKNOWN,North
2021-09-22T01:00:02Z,2021,1,0,265.0417,265.0417,63.465,-21.481,-999.0,10.09,-999.0,no,yes,no,300234068540110,SVPGHI,AOML,UNKNOWN,North
2021-09-22T02:00:57Z,2021,2,1,265.084,265.084,63.471,-21.485,-999.0,10.14,-999.0,no,yes,no,300234068540110,SVPGHI,AOML,UNKNOWN,North
2021-09-22T03:04:01Z,2021,3,4,265.1278,265.1278,63.479,-21.486,-999.0,10.12,-999.0,no,yes,no,300234068540110,SVPGHI,AOML,UNKNOWN,North
2021-09-22T04:01:03Z,2021,4,1,265.1674,265.1674,63.486,-21.488,-999.0,10.09,-999.0,no,yes,no,300234068540110,SVPGHI,AOML,UNKNOWN,North
2021-09-22T04:59:57Z,2021,5,0,265.2083,265.2083,63.492,-21.48,-999.0,10.07,-999.0,no,yes,no,300234068540110,SVPGHI,AOML,UNKNOWN,North
2021-09-22T06:03:01Z,2021,6,3,265.2521,265.2521,63.493,-21.469,-999.0,10.06,-999.0,no,yes,no,300234068540110,SVPGHI,AOML,UNKNOWN,North
2021-09-22T07:03:56Z,2021,7,4,265.2944,265.2944,63.488,-21.452,-999.0,10.06,-999.0,no,yes,no,300234068540110,SVPGHI,AOML,UNKNOWN,North
2021-09-22T08:03:59Z,2021,8,4,265.3361,265.3361,63.479,-21.443,-999.0,10.04,-999.0,no,yes,no,300234068540110,SVPGHI,AOML,UNKNOWN,North
2021-09-22T09:04:01Z,2021,9,4,265.3778,265.3778,63.46,-21.468,-999.0,10.02,-999.0,no,yes,no,300234068540110,SVPGHI,AOML,UNKNOWN,North
2021-09-22T10:03:56Z,2021,10,4,265.4194,265.4194,-90.0,-180.0,-999.0,10.01,-999.0,no,yes,no,300234068540110,SVPGHI,AOML,UNKNOWN,North
2021-09-22T11:03:59Z,2021,11,4,265.4611,265.4611,63.428,-21.427,-999.0,10.0,-999.0,no,yes,no,300234068540110,SVPGHI,AOML,UNKNOWN,North
2021-09-22T12:03:01Z,2021,12,3,265.5021,265.5021,63.415,-21.444,-999.0,10.0,-999.0,no,yes,no,300234068540110,SVPGHI,AOML,UNKNOWN,North
2021-09-22T13:00:02Z,2021,13,0,265.5417,265.5417,63.406,-21.462,-999.0,9.99,-999.0,no,yes,no,300234068540110,SVPGHI,AOML,UNKNOWN,North
2021-09-22T13:59:57Z,2021,14,0,265.5833,265.5833,63.408,-21.484,-999.0,10.0,-999.0,no,yes,no,300234068540110,SVPGHI,AOML,UNKNOWN,North
2021-09-22T15:00:00Z,2021,15,0,265.625,265.625,63.417,-21.5,-999.0,10.01,-999.0,no,yes,no,300234068540110,SVPGHI,AOML,UNKNOWN,North
2021-09-22T16:59:57Z,2021,17,0,265.7083,265.7083,63.44,-21.497,-999.0,10.03,-999.0,no,yes,no,300234068540110,SVPGHI,AOML,UNKNOWN,North
2021-09-22T18:00:00Z,2021,18,0,265.75,265.75,63.446,-21.48,-999.0,10.01,-999.0,no,yes,no,300234068540110,SVPGHI,AOML,UNKNOWN,North
2021-09-22T19:01:03Z,2021,19,1,265.7924,265.7924,63.445,-21.456,-999.0,9.98,-999.0,no,yes,no,300234068540110,SVPGHI,AOML,UNKNOWN,North
2021-09-22T20:02:58Z,2021,20,3,265.8354,265.8354,63.436,-21.435,-999.0,9.94,-999.0,no,yes,no,300234068540110,SVPGHI,AOML,UNKNOWN,North
2021-09-22T21:00:00Z,2021,21,0,265.875,265.875,63.422,-21.418,-999.0,9.95,-999.0,no,yes,no,300234068540110,SVPGHI,AOML,UNKNOWN,North
2021-09-22T22:01:03Z,2021,22,1,265.9174,265.9174,63.405,-21.407,-999.0,9.93,-999.0,no,yes,no,300234068540110,SVPGHI,AOML,UNKNOWN,North
2021-09-22T22:59:57Z,2021,23,0,265.9583,265.9583,63.388,-21.403,-999.0,9.92,-999.0,no,yes,no,300234068540110,SVPGHI,AOML,UNKNOWN,North
2021-09-23T00:00:00Z,2021,0,0,266.0,266.0,63.374,-21.407,-999.0,9.94,-999.0,no,yes,no,300234068540110,SVPGHI,AOML,UNKNOWN,North
2021-09-23T01:00:02Z,2021,1,0,266.0417,266.0417,63.367,-21.42,-999.0,9.93,-999.0,no,yes,no,300234068540110,SVPGHI,AOML,UNKNOWN,North
2021-09-23T01:59:57Z,2021,2,0,266.0833,266.0833,63.366,-21.435,-999.0,9.97,-999.0,no,yes,no,300234068540110,SVPGHI,AOML,UNKNOWN,North
2021-09-23T03:00:00Z,2021,3,0,266.125,266.125,63.37,-21.449,-999.0,9.99,-999.0,no,yes,no,300234068540110,SVPGHI,AOML,UNKNOWN,North
2021-09-23T04:01:03Z,2021,4,1,266.1674,266.1674,63.382,-21.458,-999.0,10.02,-999.0,no,yes,no,300234068540110,SVPGHI,AOML,UNKNOWN,North
2021-09-23T04:59:57Z,2021,5,0,266.2083,266.2083,63.396,-21.456,-999.0,10.02,-999.0,no,yes,no,300234068540110,SVPGHI,AOML,UNKNOWN,North
2021-09-23T06:01:00Z,2021,6,1,266.2507,266.2507,63.408,-21.445,-999.0,10.0,-999.0,no,yes,no,300234068540110,SVPGHI,AOML,UNKNOWN,North
2021-09-23T07:00:02Z,2021,7,0,266.2917,266.2917,63.416,-21.426,-999.0,10.0,-999.0,no,yes,no,300234068540110,SVPGHI,AOML,UNKNOWN,North
2021-09-23T07:59:57Z,2021,8,0,266.3333,266.3333,63.418,-21.398,-999.0,10.02,-999.0,no,yes,no,300234068540110,SVPGHI,AOML,UNKNOWN,North
2021-09-23T09:03:01Z,2021,9,3,266.3771,266.3771,63.414,-21.365,-999.0,10.01,-999.0,no,yes,no,300234068540110,SVPGHI,AOML,UNKNOWN,North
2021-09-23T10:00:02Z,2021,10,0,266.4167,266.4167,63.404,-21.338,-999.0,9.99,-999.0,no,yes,no,300234068540110,SVPGHI,AOML,UNKNOWN,North
2021-09-23T12:00:00Z,2021,12,0,266.5,266.5,63.379,-21.308,-999.0,9.94,-999.0,no,yes,no,300234068540110,SVPGHI,AOML,UNKNOWN,North
2021-09-23T13:00:02Z,2021,13,0,266.5417,266.5417,63.369,-21.313,-999.0,9.95,-999.0,no,yes,no,300234068540110,SVPGHI,AOML,UNKNOWN,North
2021-09-23T13:59:57Z,2021,14,0,266.5833,266.5833,63.373,-21.328,-999.0,10.0,-999.0,no,yes,no,300234068540110,SVPGHI,AOML,UNKNOWN,North
2021-09-23T15:00:00Z,2021,15,0,266.625,266.625,63.375,-21.353,-999.0,10.03,-999.0,no,yes,no,300234068540110,SVPGHI,AOML,UNKNOWN,North
2021-09-23T16:00:02Z,2021,16,0,266.6667,266.6667,63.384,-21.371,-999.0,10.04,-999.0,no,yes,no,300234068540110,SVPGHI,AOML,UNKNOWN,North
2021-09-23T16:59:57Z,2021,17,0,266.7083,266.7083,63.401,-21.379,-999.0,10.03,-999.0,no,yes,no,300234068540110,SVPGHI,AOML,UNKNOWN,North
2021-09-23T18:00:00Z,2021,18,0,266.75,266.75,63.415,-21.372,-999.0,10.02,-999.0,no,yes,no,300234068540110,SVPGHI,AOML,UNKNOWN,North
2021-09-23T19:00:02Z,2021,19,0,266.7917,266.7917,63.423,-21.352,-999.0,10.04,-999.0,no,yes,no,300234068540110,SVPGHI,AOML,UNKNOWN,North
2021-09-23T20:03:59Z,2021,20,4,266.8361,266.8361,63.425,-21.32,-999.0,10.06,-999.0,no,yes,no,300234068540110,SVPGHI,AOML,UNKNOWN,North
2021-09-23T21:04:01Z,2021,21,4,266.8778,266.8778,-90.0,-180.0,-999.0,10.06,-999.0,no,yes,no,300234068540110,SVPGHI,AOML,UNKNOWN,North
2021-09-23T22:03:56Z,2021,22,4,266.9194,266.9194,-90.0,-180.0,-999.0,10.06,-999.0,no,yes,no,300234068540110,SVPGHI,AOML,UNKNOWN,North
2021-09-23T23:00:57Z,2021,23,1,266.959,266.959,63.395,-21.245,-999.0,10.06,-999.0,no,yes,no,300234068540110,SVPGHI,AOML,UNKNOWN,North
2021-09-24T00:04:01Z,2021,0,4,267.0028,267.0028,63.378,-21.242,-999.0,10.06,-999.0,no,yes,no,300234068540110,SVPGHI,AOML,UNKNOWN,North
2021-09-24T01:03:56Z,2021,1,4,267.0444,267.0444,63.365,-21.246,-999.0,10.06,-999.0,no,yes,no,300234068540110,SVPGHI,AOML,UNKNOWN,North
2021-09-24T02:03:59Z,2021,2,4,267.0861,267.0861,63.358,-21.259,-999.0,10.06,-999.0,no,yes,no,300234068540110,SVPGHI,AOML,UNKNOWN,North
2021-09-24T03:00:00Z,2021,3,0,267.125,267.125,63.357,-21.272,-999.0,10.05,-999.0,no,yes,no,300234068540110,SVPGHI,AOML,UNKNOWN,North
2021-09-24T04:00:02Z,2021,4,0,267.1667,267.1667,63.36,-21.282,-999.0,10.07,-999.0,no,yes,no,300234068540110,SVPGHI,AOML,UNKNOWN,North
2021-09-24T04:59:57Z,2021,5,0,267.2083,267.2083,63.368,-21.292,-999.0,10.06,-999.0,no,yes,no,300234068540110,SVPGHI,AOML,UNKNOWN,North
2021-09-24T06:02:00Z,2021,6,2,267.2514,267.2514,63.376,-21.298,-999.0,10.06,-999.0,no,yes,no,300234068540110,SVPGHI,AOML,UNKNOWN,North
2021-09-24T07:00:02Z,2021,7,0,267.2917,267.2917,63.386,-21.294,-999.0,10.06,-999.0,no,yes,no,300234068540110,SVPGHI,AOML,UNKNOWN,North
2021-09-24T07:59:57Z,2021,8,0,267.3333,267.3333,63.391,-21.281,-999.0,10.04,-999.0,no,yes,no,300234068540110,SVPGHI,AOML,UNKNOWN,North
2021-09-24T09:00:00Z,2021,9,0,267.375,267.375,63.393,-21.26,-999.0,10.05,-999.0,no,yes,no,300234068540110,SVPGHI,AOML,UNKNOWN,North
2021-09-24T10:01:03Z,2021,10,1,267.4174,267.4174,63.389,-21.232,-999.0,10.06,-999.0,no,yes,no,300234068540110,SVPGHI,AOML,UNKNOWN,North
2021-09-24T11:01:58Z,2021,11,2,267.4597,267.4597,63.38,-21.208,-999.0,10.11,-999.0,no,yes,no,300234068540110,SVPGHI,AOML,UNKNOWN,North
2021-09-24T12:01:00Z,2021,12,1,267.5007,267.5007,63.368,-21.192,-999.0,10.12,-999.0,no,yes,no,300234068540110,SVPGHI,AOML,UNKNOWN,North
2021-09-24T13:00:02Z,2021,13,0,267.5417,267.5417,63.356,-21.186,-999.0,10.15,-999.0,no,yes,no,300234068540110,SVPGHI,AOML,UNKNOWN,North
2021-09-24T14:03:59Z,2021,14,4,267.5861,267.5861,63.345,-21.191,-999.0,10.12,-999.0,no,yes,no,300234068540110,SVPGHI,AOML,UNKNOWN,North
2021-09-24T15:01:00Z,2021,15,1,267.6257,267.6257,63.339,-21.205,-999.0,10.13,-999.0,no,yes,no,300234068540110,SVPGHI,AOML,UNKNOWN,North
2021-09-24T16:00:02Z,2021,16,0,267.6667,267.6667,63.338,-21.223,-999.0,10.12,-999.0,no,yes,no,300234068540110,SVPGHI,AOML,UNKNOWN,North
2021-09-24T17:00:57Z,2021,17,1,267.709,267.709,63.341,-21.243,-999.0,10.11,-999.0,no,yes,no,300234068540110,SVPGHI,AOML,UNKNOWN,North
2021-09-24T18:01:00Z,2021,18,1,267.7507,267.7507,63.349,-21.26,-999.0,10.1,-999.0,no,yes,no,300234068540110,SVPGHI,AOML,UNKNOWN,North
2021-09-24T19:01:03Z,2021,19,1,267.7924,267.7924,63.358,-21.271,-999.0,10.09,-999.0,no,yes,no,300234068540110,SVPGHI,AOML,UNKNOWN,North
2021-09-24T20:02:58Z,2021,20,3,267.8354,267.8354,63.363,-21.271,-999.0,10.07,-999.0,no,yes,no,300234068540110,SVPGHI,AOML,UNKNOWN,North
2021-09-24T21:03:01Z,2021,21,3,267.8771,267.8771,63.367,-21.262,-999.0,10.08,-999.0,no,yes,no,300234068540110,SVPGHI,AOML,UNKNOWN,North
2021-09-24T22:02:03Z,2021,22,2,267.9181,267.9181,63.367,-21.251,-999.0,10.06,-999.0,no,yes,no,300234068540110,SVPGHI,AOML,UNKNOWN,North
2021-09-24T23:03:59Z,2021,23,4,267.9611,267.9611,63.363,-21.237,-999.0,10.05,-999.0,no,yes,no,300234068540110,SVPGHI,AOML,UNKNOWN,North
2021-09-25T00:00:00Z,2021,0,0,268.0,268.0,63.359,-21.224,-999.0,10.06,-999.0,no,yes,no,300234068540110,SVPGHI,AOML,UNKNOWN,North
2021-09-25T01:01:03Z,2021,1,1,268.0424,268.0424,63.35,-21.214,-999.0,10.05,-999.0,no,yes,no,300234068540110,SVPGHI,AOML,UNKNOWN,North
2021-09-25T03:00:00Z,2021,3,0,268.125,268.125,63.34,-21.216,-999.0,10.06,-999.0,no,yes,no,300234068540110,SVPGHI,AOML,UNKNOWN,North
2021-09-25T04:03:56Z,2021,4,4,268.1694,268.1694,63.333,-21.226,-999.0,10.05,-999.0,no,yes,no,300234068540110,SVPGHI,AOML,UNKNOWN,North
2021-09-25T04:59:57Z,2021,5,0,268.2083,268.2083,63.334,-21.243,-999.0,10.05,-999.0,no,yes,no,300234068540110,SVPGHI,AOML,UNKNOWN,North
2021-09-25T06:04:01Z,2021,6,4,268.2528,268.2528,63.336,-21.273,-999.0,10.05,-999.0,no,yes,no,300234068540110,SVPGHI,AOML,UNKNOWN,North
2021-09-25T07:00:02Z,2021,7,0,268.2917,268.2917,63.341,-21.297,-999.0,10.05,-999.0,no,yes,no,300234068540110,SVPGHI,AOML,UNKNOWN,North
2021-09-25T07:59:57Z,2021,8,0,268.3333,268.3333,63.349,-21.323,-999.0,10.04,-999.0,no,yes,no,300234068540110,SVPGHI,AOML,UNKNOWN,North
2021-09-25T09:00:00Z,2021,9,0,268.375,268.375,63.358,-21.34,-999.0,10.04,-999.0,no,yes,no,300234068540110,SVPGHI,AOML,UNKNOWN,North
2021-09-25T10:00:02Z,2021,10,0,268.4167,268.4167,63.364,-21.346,-999.0,10.03,-999.0,no,yes,no,300234068540110,SVPGHI,AOML,UNKNOWN,North
2021-09-25T10:59:57Z,2021,11,0,268.4583,268.4583,63.371,-21.355,-999.0,10.0,-999.0,no,yes,no,300234068540110,SVPGHI,AOML,UNKNOWN,North
2021-09-25T12:00:00Z,2021,12,0,268.5,268.5,63.372,-21.355,-999.0,10.0,-999.0,no,yes,no,300234068540110,SVPGHI,AOML,UNKNOWN,North
2021-09-25T13:00:02Z,2021,13,0,268.5417,268.5417,63.384,-21.358,-999.0,9.99,-999.0,no,yes,no,300234068540110,SVPGHI,AOML,UNKNOWN,North
2021-09-25T14:00:57Z,2021,14,1,268.584,268.584,63.37,-21.362,-999.0,9.99,-999.0,no,yes,no,300234068540110,SVPGHI,AOML,UNKNOWN,North
2021-09-25T15:00:00Z,2021,15,0,268.625,268.625,63.367,-21.372,-999.0,9.99,-999.0,no,yes,no,300234068540110,SVPGHI,AOML,UNKNOWN,North
2021-09-25T16:00:02Z,2021,16,0,268.6667,268.6667,63.366,-21.388,-999.0,9.99,-999.0,no,yes,no,300234068540110,SVPGHI,AOML,UNKNOWN,North
2021-09-25T16:59:57Z,2021,17,0,268.7083,268.7083,63.367,-21.404,-999.0,9.98,-999.0,no,yes,no,300234068540110,SVPGHI,AOML,UNKNOWN,North
2021-09-25T18:04:01Z,2021,18,4,268.7528,268.7528,63.373,-21.434,-999.0,9.98,-999.0,no,yes,no,300234068540110,SVPGHI,AOML,UNKNOWN,North
2021-09-25T19:03:56Z,2021,19,4,268.7944,268.7944,63.375,-21.451,-999.0,9.96,-999.0,no,yes,no,300234068540110,SVPGHI,AOML,UNKNOWN,North
2021-09-25T20:03:59Z,2021,20,4,268.8361,268.8361,63.378,-21.475,-999.0,9.96,-999.0,no,yes,no,300234068540110,SVPGHI,AOML,UNKNOWN,North
2021-09-25T21:04:01Z,2021,21,4,268.8778,268.8778,63.382,-21.496,-999.0,9.95,-999.0,no,yes,no,300234068540110,SVPGHI,AOML,UNKNOWN,North
2021-09-25T23:03:59Z,2021,23,4,268.9611,268.9611,63.389,-21.524,-999.0,9.95,-999.0,no,yes,no,300234068540110,SVPGHI,AOML,UNKNOWN,North
2021-09-26T00:00:00Z,2021,0,0,269.0,269.0,63.393,-21.529,-999.0,9.95,-999.0,no,yes,no,300234068540110,SVPGHI,AOML,UNKNOWN,North
2021-09-26T01:00:02Z,2021,1,0,269.0417,269.0417,63.391,-21.527,-999.0,9.95,-999.0,no,yes,no,300234068540110,SVPGHI,AOML,UNKNOWN,North
2021-09-26T01:59:57Z,2021,2,0,269.0833,269.0833,63.399,-21.53,-999.0,9.94,-999.0,no,yes,no,300234068540110,SVPGHI,AOML,UNKNOWN,North
2021-09-26T03:00:00Z,2021,3,0,269.125,269.125,63.401,-21.541,-999.0,9.95,-999.0,no,yes,no,300234068540110,SVPGHI,AOML,UNKNOWN,North
2021-09-26T04:03:56Z,2021,4,4,269.1694,269.1694,-90.0,-180.0,-999.0,9.95,-999.0,no,yes,no,300234068540110,SVPGHI,AOML,UNKNOWN,North
2021-09-26T05:03:59Z,2021,5,4,269.2111,269.2111,-90.0,-180.0,-999.0,9.94,-999.0,no,yes,no,300234068540110,SVPGHI,AOML,UNKNOWN,North
2021-09-26T06:04:01Z,2021,6,4,269.2528,269.2528,63.406,-21.578,-999.0,9.94,-999.0,no,yes,no,300234068540110,SVPGHI,AOML,UNKNOWN,North
2021-09-26T07:00:02Z,2021,7,0,269.2917,269.2917,63.407,-21.604,-999.0,9.93,-999.0,no,yes,no,300234068540110,SVPGHI,AOML,UNKNOWN,North
2021-09-26T07:59:57Z,2021,8,0,269.3333,269.3333,63.411,-21.626,-999.0,9.93,-999.0,no,yes,no,300234068540110,SVPGHI,AOML,UNKNOWN,North
2021-09-26T09:00:00Z,2021,9,0,269.375,269.375,63.417,-21.644,-999.0,9.93,-999.0,no,yes,no,300234068540110,SVPGHI,AOML,UNKNOWN,North
2021-09-26T10:59:57Z,2021,11,0,269.4583,269.4583,63.429,-21.69,-999.0,9.91,-999.0,no,yes,no,300234068540110,SVPGHI,AOML,UNKNOWN,North
2021-09-26T12:00:00Z,2021,12,0,269.5,269.5,63.431,-21.702,-999.0,9.92,-999.0,no,yes,no,300234068540110,SVPGHI,AOML,UNKNOWN,North
2021-09-26T13:01:03Z,2021,13,1,269.5424,269.5424,63.439,-21.721,-999.0,9.92,-999.0,no,yes,no,300234068540110,SVPGHI,AOML,UNKNOWN,North
2021-09-26T14:03:59Z,2021,14,4,269.5861,269.5861,63.443,-21.721,-999.0,9.91,-999.0,no,yes,no,300234068540110,SVPGHI,AOML,UNKNOWN,North
2021-09-26T15:01:00Z,2021,15,1,269.6257,269.6257,63.447,-21.722,-999.0,9.9,-999.0,no,yes,no,300234068540110,SVPGHI,AOML,UNKNOWN,North
2021-09-26T16:03:56Z,2021,16,4,269.6694,269.6694,63.453,-21.725,-999.0,9.91,-999.0,no,yes,no,300234068540110,SVPGHI,AOML,UNKNOWN,North
2021-09-26T17:03:59Z,2021,17,4,269.7111,269.7111,-90.0,-180.0,-999.0,9.9,-999.0,no,yes,no,300234068540110,SVPGHI,AOML,UNKNOWN,North
2021-09-26T18:03:01Z,2021,18,3,269.7521,269.7521,63.471,-21.767,-999.0,9.91,-999.0,no,yes,no,300234068540110,SVPGHI,AOML,UNKNOWN,North
2021-09-26T19:00:02Z,2021,19,0,269.7917,269.7917,63.48,-21.779,-999.0,9.9,-999.0,no,yes,no,300234068540110,SVPGHI,AOML,UNKNOWN,North
2021-09-26T19:59:57Z,2021,20,0,269.8333,269.8333,63.486,-21.792,-999.0,9.91,-999.0,no,yes,no,300234068540110,SVPGHI,AOML,UNKNOWN,North
2021-09-26T21:00:00Z,2021,21,0,269.875,269.875,63.492,-21.798,-999.0,9.91,-999.0,no,yes,no,300234068540110,SVPGHI,AOML,UNKNOWN,North
2021-09-26T22:01:03Z,2021,22,1,269.9174,269.9174,63.493,-21.806,-999.0,9.92,-999.0,no,yes,no,300234068540110,SVPGHI,AOML,UNKNOWN,North
2021-09-26T23:02:58Z,2021,23,3,269.9604,269.9604,63.497,-21.818,-999.0,9.9,-999.0,no,yes,no,300234068540110,SVPGHI,AOML,UNKNOWN,North
2021-09-27T00:01:00Z,2021,0,1,270.0007,270.0007,63.501,-21.826,-999.0,9.89,-999.0,no,yes,no,300234068540110,SVPGHI,AOML,UNKNOWN,North
2021-09-27T01:01:03Z,2021,1,1,270.0424,270.0424,63.502,-21.831,-999.0,9.88,-999.0,no,yes,no,300234068540110,SVPGHI,AOML,UNKNOWN,North
2021-09-27T02:01:58Z,2021,2,2,270.0847,270.0847,63.507,-21.823,-999.0,9.87,-999.0,no,yes,no,300234068540110,SVPGHI,AOML,UNKNOWN,North
2021-09-27T03:00:00Z,2021,3,0,270.125,270.125,63.51,-21.841,-999.0,9.86,-999.0,no,yes,no,300234068540110,SVPGHI,AOML,UNKNOWN,North
2021-09-27T04:03:56Z,2021,4,4,270.1694,270.1694,-90.0,-180.0,-999.0,9.84,-999.0,no,yes,no,300234068540110,SVPGHI,AOML,UNKNOWN,North
2021-09-27T06:04:01Z,2021,6,4,270.2528,270.2528,63.517,-21.887,-999.0,9.82,-999.0,no,yes,no,300234068540110,SVPGHI,AOML,UNKNOWN,North
2021-09-27T07:02:03Z,2021,7,2,270.2931,270.2931,63.522,-21.886,-999.0,9.81,-999.0,no,yes,no,300234068540110,SVPGHI,AOML,UNKNOWN,North
2021-09-27T08:00:57Z,2021,8,1,270.334,270.334,63.524,-21.9,-999.0,9.8,-999.0,no,yes,no,300234068540110,SVPGHI,AOML,UNKNOWN,North
2021-09-27T09:01:00Z,2021,9,1,270.3757,270.3757,63.527,-21.913,-999.0,9.79,-999.0,no,yes,no,300234068540110,SVPGHI,AOML,UNKNOWN,North
2021-09-27T11:03:59Z,2021,11,4,270.4611,270.4611,63.528,-21.947,-999.0,9.78,-999.0,no,yes,no,300234068540110,SVPGHI,AOML,UNKNOWN,North
2021-09-27T12:04:01Z,2021,12,4,270.5028,270.5028,63.526,-21.963,-999.0,9.76,-999.0,no,yes,no,300234068540110,SVPGHI,AOML,UNKNOWN,North
2021-09-27T13:03:56Z,2021,13,4,270.5444,270.5444,63.52,-21.975,-999.0,9.75,-999.0,no,yes,no,300234068540110,SVPGHI,AOML,UNKNOWN,North
2021-09-27T14:03:59Z,2021,14,4,270.5861,270.5861,63.517,-21.98,-999.0,9.75,-999.0,no,yes,no,300234068540110,SVPGHI,AOML,UNKNOWN,North
2021-09-27T15:04:01Z,2021,15,4,270.6278,270.6278,63.516,-21.977,-999.0,9.71,-999.0,no,yes,no,300234068540110,SVPGHI,AOML,UNKNOWN,North
2021-09-27T16:03:56Z,2021,16,4,270.6694,270.6694,63.507,-21.963,-999.0,9.69,-999.0,no,yes,no,300234068540110,SVPGHI,AOML,UNKNOWN,North
2021-09-27T17:03:59Z,2021,17,4,270.7111,270.7111,-90.0,-180.0,-999.0,9.69,-999.0,no,yes,no,300234068540110,SVPGHI,AOML,UNKNOWN,North
2021-09-27T18:04:01Z,2021,18,4,270.7528,270.7528,-90.0,-180.0,-999.0,9.67,-999.0,no,yes,no,300234068540110,SVPGHI,AOML,UNKNOWN,North
2021-09-27T19:03:56Z,2021,19,4,270.7944,270.7944,-90.0,-180.0,-999.0,9.66,-999.0,no,yes,no,300234068540110,SVPGHI,AOML,UNKNOWN,North
2021-09-27T20:03:59Z,2021,20,4,270.8361,270.8361,63.532,-22.046,-999.0,9.65,-999.0,no,yes,no,300234068540110,SVPGHI,AOML,UNKNOWN,North
2021-09-27T21:04:01Z,2021,21,4,270.8778,270.8778,-90.0,-180.0,-999.0,9.63,-999.0,no,yes,no,300234068540110,SVPGHI,AOML,UNKNOWN,North
2021-09-27T22:03:56Z,2021,22,4,270.9194,270.9194,-90.0,-180.0,-999.0,9.63,-999.0,no,yes,no,300234068540110,SVPGHI,AOML,UNKNOWN,North
2021-09-27T23:03:59Z,2021,23,4,270.9611,270.9611,-90.0,-180.0,-999.0,9.62,-999.0,no,yes,no,300234068540110,SVPGHI,AOML,UNKNOWN,North
2021-09-28T00:04:01Z,2021,0,4,271.0028,271.0028,63.51,-22.076,-999.0,9.59,-999.0,no,yes,no,300234068540110,SVPGHI,AOML,UNKNOWN,North
2021-09-28T02:03:59Z,2021,2,4,271.0861,271.0861,-90.0,-180.0,-999.0,9.56,-999.0,no,yes,no,300234068540110,SVPGHI,AOML,UNKNOWN,North
2021-09-28T03:04:01Z,2021,3,4,271.1278,271.1278,-90.0,-180.0,-999.0,9.55,-999.0,no,yes,no,300234068540110,SVPGHI,AOML,UNKNOWN,North
2021-09-28T04:03:56Z,2021,4,4,271.1694,271.1694,-90.0,-180.0,-999.0,9.52,-999.0,no,yes,no,300234068540110,SVPGHI,AOML,UNKNOWN,North
2021-09-28T05:03:59Z,2021,5,4,271.2111,271.2111,-90.0,-180.0,-999.0,9.5,-999.0,no,yes,no,300234068540110,SVPGHI,AOML,UNKNOWN,North
2021-09-28T06:04:01Z,2021,6,4,271.2528,271.2528,-90.0,-180.0,-999.0,9.5,-999.0,no,yes,no,300234068540110,SVPGHI,AOML,UNKNOWN,North
2021-09-28T07:03:04Z,2021,7,3,271.2938,271.2938,63.515,-22.109,-999.0,9.49,-999.0,no,yes,no,300234068540110,SVPGHI,AOML,UNKNOWN,North
2021-09-28T08:00:57Z,2021,8,1,271.334,271.334,63.515,-22.113,-999.0,9.47,-999.0,no,yes,no,300234068540110,SVPGHI,AOML,UNKNOWN,North
2021-09-28T09:04:01Z,2021,9,4,271.3778,271.3778,-90.0,-180.0,-999.0,9.46,-999.0,no,yes,no,300234068540110,SVPGHI,AOML,UNKNOWN,North
2021-09-28T10:03:56Z,2021,10,4,271.4194,271.4194,-90.0,-180.0,-999.0,9.45,-999.0,no,yes,no,300234068540110,SVPGHI,AOML,UNKNOWN,North